Regional Weather Roundup
Issued by NWS

Home | Current Version | Previous Version | Text Only | Print | Product List | Glossary On
Versions: 1 2 3 4 5 6 7 8 9 10 11 12 13 14 15 16 17 18 19 20 21 22 23 24 25 26 27 28 29 30 31 32 33 34 35 36 37 38 39 40 41 42 43 44 45 46 47 48 49 50
000
ASUS44 KEWX 282302
RWRTX
SOUTH TEXAS REGIONAL WEATHER ROUNDUP
NATIONAL WEATHER SERVICE AUSTIN/SAN ANTONIO TX
500 PM CST WED JAN 28 2015

NOTE: "FAIR" INDICATED FEW OR NO CLOUDS BELOW 12,000 FEET WITH NO
SIGNIFICANT WEATHER AND/OR OBSTRUCTIONS TO VISIBILITY.

* - THESE STATIONS ARE NOT NWS OR FAA STATIONS...AND ARE NOT SUBJECT
    TO NWS AND FAA QUALITY CONTROL.

TXZ171-172-183>190-290000-
TEXAS HILL COUNTRY AND EDWARDS PLATEAU

CITY           SKY/WX    TMP DP  RH WIND       PRES   REMARKS
JUNCTION       SUNNY     79  33  19 SW13      30.04F
*LLANO         SUNNY     81  36  19 S13       30.07F
BURNET         SUNNY     77  36  22 S13G21    30.07F
*HORSESHOE BAY SUNNY     79  33  19 S10G17    30.06S
*KERRVILLE     SUNNY     76  34  21 S14       30.09S
*FREDERICKSBRG SUNNY     75  35  22 SW14      30.09R
*ROCKSPRINGS   SUNNY     75  34  22 S14       30.10F
*BOERNE STAGE  SUNNY     77  32  19 S10G16    30.10S
*CASTROVILLE   SUNNY     78  39  24 S8        30.09S
HONDO          SUNNY     78  38  23 S10       30.09S
*UVALDE        SUNNY     79  40  24 SE9       30.06F
DEL RIO        SUNNY     81  37  20 SE15      30.01F
LAUGHLIN AFB   SUNNY     81  39  22 SE15      30.03F
CARRIZO SPRGS  SUNNY     81  39  22 S14       30.03F
$$

TXZ173-191>194-202-209-217>225-228-290000-
CENTRAL AND SOUTH CENTRAL TEXAS

CITY           SKY/WX    TMP DP  RH WIND       PRES   REMARKS
GEORGETOWN     SUNNY     79  36  21 S14G21    30.06R
AUSTIN/BERGSTM MOSUNNY   77  41  27 S14       30.07S
AUSTIN/MABRY   SUNNY     78  38  23 VRB7G16   30.08S
*AUSTIN/EXEC   SUNNY     77  37  24 S13G18    30.08S
*LAGO VISTA    SUNNY     78  35  20 S10G17    30.08S
SAN MARCOS     SUNNY     79  37  22 S12       30.08S
NEW BRAUNFELS  SUNNY     79  37  22 S14       30.07S
RANDOLPH AFB   SUNNY     77  37  23 S8        30.09S
PT SAN ANTONIO SUNNY     76  42  29 S8        30.07S
SAN ANTONIO    MOSUNNY   78  38  23 S10       30.09R
STINSON FIELD  SUNNY     79  37  22 S9        30.06F
*PLEASANTON    SUNNY     80  35  19 SE14      30.07F
*LA GRANGE     SUNNY     78  45  30 S7        30.08S
*GIDDINGS      SUNNY     76  40  27 S7        30.12F
*GONZALES      SUNNY     79  43  27 S10       30.08S
$$

TXZ163>164-176>182-195>201-210>213-226-227-235-290000-
SOUTHEAST TEXAS

CITY           SKY/WX    TMP DP  RH WIND       PRES   REMARKS
COLLEGE STN    SUNNY     77  40  26 S12       30.09S
*BRYAN         SUNNY     77  42  28 S13G18    30.10S
*CALDWELL      SUNNY     75  37  25 S14G21    30.11F
*CROCKETT      CLEAR     77  52  41 S6        30.11S
*BRENHAM       SUNNY     78  41  27 S8        30.11R
HUNTSVILLE     CLEAR     76  41  28 S10       30.09S
CONROE         CLEAR     74  46  36 S10       30.11R
HOUSTON BUSH   MOSUNNY   72  48  42 SE14      30.11R
HOUSTON HOBBY  MOSUNNY   71  51  49 S10       30.13R
*HOUSTON SW AP SUNNY     70  54  55 SE10      30.13R
PEARLAND       SUNNY     70  54  56 S12       30.15R
HOUSTON HOOKS  SUNNY     77  42  28 S8        30.11R
ELLINGTON FLD  MOSUNNY   72  46  40 S12       30.14R
SUGAR LAND     SUNNY     75  45  34 SW9       30.11R
*HOUSTON EXEC    N/A    N/A N/A N/A MISG        N/A
*CLEVELAND MUN   N/A     73  55  53 CALM      30.13R
*WHARTON       SUNNY     72  49  44 S14       30.13S
*COLUMBUS      FAIR      75  44  33 S9G17     30.10S
$$

TXZ214>216-236>238-290000-
THE UPPER TEXAS COAST

CITY           SKY/WX    TMP DP  RH WIND       PRES   REMARKS
*ORANGE        CLEAR     65  54  67 SE9       30.18F
PORT ARTHUR    CLEAR     65  53  65 SE14      30.15F
GALVESTON      SUNNY     65  55  70 S13       30.14F
ANGLETON       MOSUNNY   67  56  67 S15       30.14S
*BAY CITY      SUNNY     69  58  69 S10       30.14S
PALACIOS       SUNNY     65  58  78 SE13      30.13S
$$

TXZ229>234-239>247-290000-
TEXAS COASTAL BEND AND RIO GRANDE PLAINS

CITY           SKY/WX    TMP DP  RH WIND       PRES   REMARKS
VICTORIA       SUNNY     74  45  35 S17       30.12R
*BEEVILLE      SUNNY     77  53  42 SE13      30.10S
ROCKPORT       PTSUNNY   67  61  81 SE13      30.12F
*PORT ARANSAS  SUNNY     64  61  91 SE7       30.12F
*PORT LAVACA   SUNNY     69  61  74 S13       30.13S
*INGLESIDE     PTSUNNY   69  61  75 S16G22    30.12S
CORPUS CHRISTI PTSUNNY   71  58  63 SE21      30.11S
CORPUS NAS     PTSUNNY   68  62  81 S16       30.12F
*ROBSTOWN      PTSUNNY   77  50  38 SE16      30.10S
ALICE          MOSUNNY   79  50  36 SE17G35   30.08S
KINGSVILLE NAS PTSUNNY   74  63  68 SE12      30.10S
COTULLA        SUNNY     83  34  17 S13       30.04F
*FAITH RANCH   SUNNY     81  36  19 S15       30.05F
LAREDO         NOT AVBL
$$

TXZ248>255-290000-
DEEP SOUTH TEXAS

CITY           SKY/WX    TMP DP  RH WIND       PRES   REMARKS
BROWNSVILLE    MOSUNNY   71  61  70 SE14      30.14R
PORT ISABEL    MOSUNNY   72  59  63 S17       30.12F
*SOUTH PADRE   MOSUNNY   64  61  88 CALM      30.14F
HARLINGEN      MOSUNNY   75  56  51 S14       30.11S
*HEBBRONVILLE    N/A    N/A N/A N/A MISG        N/A
MCALLEN        PTSUNNY   75  50  41 SE18      30.10S
*WESLACO       MOSUNNY   74  53  46 SE15G21   30.10F
FALFURRIAS     MOSUNNY   78  47  33 SE12G17   30.09S
EDINBURG       MOSUNNY   78  45  30 SE13G20   30.11S
*ZAPATA        MOSUNNY   81  37  21 SE12G18   30.06F
$$

TXZ213>215-236>238-242>244-246-247-251-254-255-290000-
CMAN STATIONS

STATION/POSITION TIME  TEMP    WIND        PRES    WAVE
                       AIR SEA DIR/SP/G            HT/PER
                 (UTC) (F)     (DEG/KT/KT) (MB)    (FT/S)
SABINE PASS      2200   59 55  150/ 12/ 14 1021.5
SEA RIM ST PARK  2200   60     140/  9/ 12 1022.3
NORTH JETTY/GLS  2200   62 57  190/ 10/ 12   N/A
EAGLE POINT      2200   63 60  180/ 11/ 12 1020.3
MORGANS POINT    2200   65     150/  5/  8 1020.1
MISSION/ARANSAS  2200   64     VRB  8      1021.0
PORT O`CONNOR    2200          140/  6/  7   N/A
PORT ARANSAS     2200   62 61  120/  8/  9 1021.2
MALAQUITE BEACH  2200   62 63  130/ 12/ 14 1019.7
BAFFIN BAY       2200   66     140/ 13/ 17 1019.9
PORT ISABEL      2200   70 60  150/ 12/ 16 1020.4
$$

GMZ080-GMZ150>470-290000-
OFFSHORE BUOY REPORTS

STATION/POSITION TIME  TEMP    WIND        PRES    WAVE
                       AIR SEA DIR/SP/G            HT/PER
                 (UTC) (F)     (DEG/KT/KT) (MB)    (FT/S)
20 E GALVESTON   2300   60 58  140/ 10/ 12 1020.6    1
90 E PT ARANSAS  2300   69 70  150/  8/ 10 1021.6    1/ 4
35 NE PT MANSFLD 2300   69 70  160/ 12/ 14 1020.5    1
200 E PT ISABEL  2300   71 74   90/  4/  4 1022.0    1/ 4
$$


USA.gov is the U.S. government's official web portal to all federal, state and local government web resources and services.